Погода в Марково

Россия / Ивановская область     56°47′35″N   41°21′16″E
темп.,
°C
ветер,
м/с
пор.,
м/с
влажн.,
%
обл.,
%
осадки,
мм/ч
давл.,
гПа
погр.,
м
14 апреля, ср
ср1400:00+9ююв3107050 0.0 1024157
03:00+8ююв310764 0.0 1024175
06:00+8ююв3117863 0.0 1023177
09:00+14ю485567 0.0 1023357
12:00+19ю473679 0.0 10211003
15:00+20ю572745 0.0 10201903
18:00+16ююв2543100 0.0 1019118
21:00+12ю2456100 0.0 102062
15 апреля, чт
чт1500:00+10ю2262100 0.0 101914
03:00+9ю1165100 0.0 101910
06:00+8ююв1167100 0.0 101910
09:00+12св1253100 0.0 1019216
12:00+17св2241100 0.0 1019753
15:00+17св4443100 0.0 10191364
18:00+12ссв61078100 0.0 1020519
21:00+7св51284100 0.0 1023529
16 апреля, пт
пт1600:00+6св51284100 0.0 1023517
03:00+5св51283100 0.0 1024506
06:00+4всв51381100 0.0 1025507
09:00+7всв5970100 0.0 1026600
12:00+10всв685457 0.0 1026942
15:00+12всв674764 0.0 10261244
18:00+11всв584769 0.0 10261049
21:00+7всв4125468 0.0 1028439
17 апреля, сб
сб1700:00+5всв412616 0.0 1029400
03:00+3всв4126710 0.0 1029344
06:00+2всв4126955 0.0 1030342
09:00+7всв594618 0.0 1031656
12:00+11всв58355 0.0 10301206
15:00+12всв57340 0.0 10301416
18:00+11всв47410 0.0 1029785
21:00+6св37600 0.0 1030135
18 апреля, вс
вс1800:00+4св27710 0.0 1030127
03:00+3св26770 0.0 1031111
06:00+2св27800 0.0 1031143
09:00+9всв36550 0.0 1031540
12:00+12всв46415 0.0 10311489
15:00+13всв464093 0.0 10301721
18:00+11в2650100 0.0 1030301
21:00+8св2466100 0.0 103187